Wind_Speed
7 7 8 13 12 14 15 16 17 20 22 22 25 22 21 22 21 21 23 24 26 26 25 28 30 33 32 33 36 39 43 44 46 49 50 52 56 59 61 61 60 62 62 59
8 12 12 14 14 15 15 15 18 22 21 22 20 21 19 20 20 19 19 19 22 24 25 27 30 31 33 36 40 42 45 48 50 52 55 58 59 60 61 63 63 60 55 55
11 12 13 14 14 14 15 16 19 19 21 20 17 20 16 20 20 20 19 20 21 23 24 25 29 32 36 39 42 44 47 50 52 55 58 58 59 61 63 57 46 42 44 42
13 13 13 13 14 14 18 17 17 18 18 16 18 16 23 22 22 20 18 19 20 21 24 28 31 35 37 39 43 46 49 50 54 56 57 59 61 61 51 45 48 49 49 47
13 12 13 14 15 16 17 17 17 17 17 19 20 19 23 22 22 21 21 21 22 24 27 29 32 34 38 41 44 47 49 53 54 57 59 61 60 50 46 50 51 50 48 48
13 14 14 16 16 17 17 17 17 17 17 16 19 20 18 25 21 21 22 22 23 24 26 28 31 36 39 42 44 47 51 53 57 60 63 61 52 47 49 51 48 48 46 44
13 14 15 16 17 17 18 19 15 12 12 13 20 22 22 24 22 23 23 22 23 25 27 30 34 37 40 41 45 50 53 56 60 63 60 51 48 50 50 47 45 42 39 39
11 12 17 16 17 19 19 18 16 14 15 14 22 22 27 26 24 24 24 25 26 27 29 31 33 36 40 43 48 50 54 58 62 58 49 48 49 46 45 42 39 39 39 40
13 16 18 20 20 20 21 16 16 16 16 17 20 23 27 26 25 24 26 27 26 27 29 31 34 36 41 46 49 52 56 60 56 48 49 48 47 46 42 38 39 40 40 43
14 17 19 21 21 19 18 16 17 18 17 16 15 23 24 30 29 28 27 27 25 26 29 31 34 39 42 46 49 54 57 56 47 48 49 48 47 42 37 38 39 43 42 44
15 17 24 22 19 19 19 17 17 18 17 20 20 16 27 31 30 28 27 26 26 27 29 32 36 40 43 46 51 54 56 47 46 48 48 46 41 36 38 37 38 41 41 43
18 20 19 22 20 18 18 18 18 19 21 20 22 27 26 30 29 27 26 26 26 27 30 33 37 41 43 46 51 55 51 43 45 47 47 41 37 38 38 39 41 41 44 42
20 19 20 21 21 17 19 18 19 20 20 21 23 26 32 30 27 26 26 27 28 28 31 35 38 41 43 48 52 54 45 41 43 46 45 39 39 39 35 39 38 37 41 40
24 22 21 21 22 23 22 21 20 22 22 22 26 26 28 29 29 28 28 28 29 30 33 36 39 40 44 48 51 51 43 40 42 44 46 42 40 40 41 41 43 39 40 35
28 27 25 24 24 23 24 23 23 24 26 26 26 28 28 27 28 28 28 30 32 32 34 36 38 39 45 49 52 50 41 39 42 43 44 43 42 42 42 44 44 44 34 35
31 31 31 27 26 27 25 26 26 26 28 28 30 31 27 26 27 28 28 30 33 34 35 36 36 39 45 49 52 50 41 40 42 41 45 44 44 44 43 45 49 32 39 38
31 32 32 30 30 30 28 26 28 29 30 29 30 30 28 26 27 27 28 31 34 35 35 36 34 39 44 49 51 51 43 40 42 42 45 46 47 46 47 49 34 33 31 34
33 33 34 32 30 30 31 29 30 30 31 31 30 29 27 26 29 29 31 34 35 34 33 34 32 37 44 47 50 52 45 39 40 42 45 48 48 48 51 40 37 34 35 37
32 32 32 31 31 31 28 27 32 32 30 32 30 30 28 27 28 29 30 32 35 33 32 31 31 36 41 46 52 54 48 39 40 43 45 48 48 52 45 42 37 33 31 30
30 30 33 36 33 34 29 26 29 31 29 30 32 30 30 28 27 29 29 32 34 32 31 28 29 34 40 47 55 57 50 40 39 41 46 47 47 44 44 37 32 30 27 23
34 32 31 31 33 33 25 29 31 31 30 30 32 32 31 28 27 27 28 30 33 31 31 28 29 33 39 46 53 59 51 39 38 40 45 46 51 40 37 37 30 28 26 19
35 33 33 32 34 34 29 29 31 32 31 30 31 32 32 28 27 27 26 29 32 30 30 27 29 34 39 44 51 58 51 38 36 41 43 44 43 37 38 34 31 28 25 11
38 35 32 38 33 34 32 31 31 31 31 32 31 31 30 26 27 27 26 28 31 29 29 26 29 33 38 43 50 58 51 38 35 40 41 44 38 34 36 36 32 28 23 15
40 38 40 40 33 34 34 35 32 33 32 34 33 32 31 27 26 26 25 27 30 28 28 25 28 32 36 42 50 57 52 36 34 38 40 43 34 36 37 37 29 25 20 20
36 38 37 37 36 37 36 36 36 35 32 34 34 31 30 28 25 25 24 26 28 26 27 24 27 31 34 39 48 55 51 35 33 36 37 41 33 35 37 36 27 21 17 21
37 35 38 36 38 35 36 40 38 36 36 37 37 30 30 30 25 23 23 24 26 23 25 23 26 29 31 38 45 52 50 34 32 33 34 37 32 32 34 33 27 22 18 21
Wind_Direction
275 282 256 291 287 288 297 300 300 306 317 318 314 311 304 308 300 294 291 291 291 291 299 299 302 301 303 304 304 304 303 307 310 310 309 306 305 305 304 302 300 300 297 293
275 270 285 289 292 294 296 298 297 308 312 312 313 314 312 310 302 298 292 285 285 290 294 296 295 296 299 300 302 305 309 311 312 311 309 308 308 306 305 304 303 301 298 292
256 282 284 287 295 298 297 300 302 302 308 311 318 313 319 311 306 300 295 290 288 289 290 289 293 296 299 303 306 308 310 311 310 310 309 308 308 309 309 308 308 309 308 304
265 273 283 292 294 294 296 305 306 310 313 315 323 319 312 308 304 301 296 288 286 287 287 291 295 299 303 304 308 311 311 310 310 310 311 312 312 310 306 309 308 308 306 304
269 277 286 286 288 296 300 308 314 316 319 318 318 319 301 310 306 302 298 293 291 293 294 294 297 300 304 309 310 311 309 311 313 316 313 312 312 310 309 311 310 306 304 302
273 279 280 283 292 299 307 315 318 317 319 323 324 327 310 321 317 312 307 303 298 296 295 297 303 307 308 308 309 309 314 318 318 316 316 316 314 310 308 310 308 308 306 305
277 278 282 290 299 301 313 320 326 325 320 313 325 327 317 323 320 319 316 310 304 299 302 305 304 305 308 310 312 318 319 321 319 317 318 315 313 310 311 310 310 307 306 305
265 297 285 293 297 302 310 313 311 312 314 313 321 328 322 327 324 320 317 313 310 307 304 303 306 309 312 316 319 321 323 322 320 320 318 316 315 315 313 311 308 308 307 310
267 274 282 287 294 303 308 309 306 305 307 321 327 331 319 327 325 321 319 315 311 308 307 310 312 315 318 321 322 324 324 322 322 321 319 320 319 316 314 311 310 312 312 309
265 273 277 285 293 293 300 307 306 307 315 324 319 330 328 326 322 317 316 315 314 313 314 315 318 320 323 323 324 326 325 324 325 323 323 322 320 318 315 314 316 315 311 311
266 269 282 284 289 296 305 304 296 300 309 316 321 320 323 324 322 319 321 320 322 321 319 320 320 322 324 325 326 327 326 327 327 327 326 323 321 319 317 316 318 320 315 317
271 271 280 287 289 292 295 294 294 297 306 308 311 317 322 325 325 323 323 323 323 321 322 320 322 325 326 327 328 328 328 328 329 331 329 326 325 321 319 321 320 321 321 316
275 275 284 293 287 284 292 293 294 295 298 305 309 318 321 327 323 322 322 323 324 323 321 322 326 327 328 328 330 331 329 328 331 335 333 329 327 325 326 327 325 325 324 324
278 281 287 289 286 290 294 296 297 296 299 304 308 313 316 321 320 321 324 326 326 325 323 327 328 330 330 332 334 332 329 327 333 335 337 332 326 325 321 322 323 319 323 328
282 286 288 285 284 285 290 296 299 299 300 304 306 310 314 319 319 321 328 329 328 326 327 329 331 331 332 335 335 337 331 328 333 335 335 336 334 327 322 320 319 318 323 320
283 284 285 286 285 284 286 291 293 295 298 302 305 308 310 315 318 320 325 326 327 328 329 330 331 332 335 337 338 342 334 330 332 332 335 336 335 331 327 323 320 319 316 320
282 283 282 281 281 282 283 283 287 291 292 297 302 305 308 311 314 321 324 328 329 328 329 330 331 336 339 340 344 346 340 333 332 331 335 336 333 332 329 328 326 314 311 316
280 283 284 281 281 281 280 281 282 284 289 294 298 302 305 306 308 317 323 326 327 327 326 329 333 340 341 344 347 348 343 336 334 333 335 335 334 333 332 329 327 324 316 312
272 279 282 285 283 282 285 286 284 284 286 291 295 300 302 304 306 309 314 320 324 325 325 328 335 340 343 347 351 351 346 337 335 335 336 337 335 336 334 333 332 337 329 323
275 273 273 282 280 281 284 285 281 282 286 287 291 294 298 302 304 306 312 317 323 323 324 326 334 339 342 347 350 353 347 340 337 337 338 340 339 343 344 349 351 345 355 359
277 278 277 281 281 280 282 282 281 285 282 288 289 292 294 300 304 307 309 315 322 321 323 326 332 337 341 346 349 353 348 342 339 339 342 343 343 348 356 351 353 355 360 5
276 277 280 278 279 285 284 278 278 280 285 285 286 290 293 298 300 305 308 313 319 319 323 324 331 336 340 347 349 352 349 343 341 341 345 346 352 358 358 359 3 5 2 2
272 274 273 277 279 283 282 281 280 280 282 283 286 287 290 294 296 302 306 311 316 317 322 321 330 336 341 348 349 352 351 345 343 344 348 349 1 6 5 5 7 8 8 11
275 276 274 275 280 277 277 277 277 276 278 280 281 282 285 289 292 298 302 307 313 315 319 318 327 334 340 348 348 351 354 346 346 348 351 351 8 10 12 10 11 20 33 36
276 280 282 280 281 278 277 275 272 271 272 272 274 277 281 285 289 293 298 304 310 312 316 315 324 332 339 345 347 350 354 348 347 350 354 353 14 13 16 11 15 31 37 25
279 279 278 279 275 277 271 268 270 268 265 265 269 275 276 281 283 287 295 300 306 309 313 312 320 331 338 342 344 347 355 349 349 350 354 356 11 14 20 21 24 37 36 28
Height
5917 5917 5917 5916 5916 5915 5913 5911 5910 5906 5904 5903 5901 5900 5898 5895 5893 5891 5888 5886 5884 5882 5880 5878 5874 5870 5866 5862 5858 5854 5850 5845 5840 5834 5829 5823 5815 5807 5800 5791 5785 5778 5772 5767
5915 5913 5913 5912 5912 5911 5910 5909 5906 5903 5902 5901 5898 5896 5893 5890 5887 5885 5882 5880 5878 5876 5874 5872 5867 5863 5860 5856 5852 5847 5840 5834 5828 5822 5815 5808 5801 5793 5784 5775 5767 5759 5754 5747
5912 5911 5910 5909 5909 5908 5906 5905 5904 5903 5900 5897 5896 5892 5890 5886 5883 5880 5877 5875 5872 5870 5868 5865 5861 5858 5854 5849 5844 5838 5832 5825 5819 5812 5804 5796 5787 5777 5767 5759 5752 5746 5741 5735
5909 5908 5907 5907 5905 5905 5903 5902 5900 5898 5897 5895 5892 5891 5885 5882 5878 5875 5872 5870 5867 5865 5863 5859 5855 5851 5846 5841 5835 5829 5823 5816 5808 5801 5791 5781 5772 5764 5754 5748 5741 5734 5727 5722
5905 5905 5904 5903 5902 5901 5900 5898 5897 5894 5892 5891 5888 5888 5879 5878 5874 5871 5868 5865 5862 5859 5856 5853 5849 5844 5839 5833 5827 5820 5814 5806 5797 5786 5777 5768 5758 5749 5742 5735 5728 5722 5715 5709
5902 5901 5901 5900 5899 5898 5897 5895 5894 5891 5890 5888 5885 5883 5877 5873 5870 5866 5862 5859 5856 5853 5850 5847 5842 5836 5831 5825 5819 5812 5804 5794 5784 5774 5763 5754 5745 5738 5731 5724 5716 5710 5704 5697
5899 5898 5897 5897 5896 5894 5893 5891 5891 5891 5889 5886 5881 5878 5874 5869 5865 5861 5857 5854 5851 5848 5845 5840 5835 5830 5824 5818 5811 5802 5792 5783 5773 5762 5752 5742 5735 5727 5720 5712 5705 5699 5693 5687
5897 5897 5894 5894 5893 5891 5890 5889 5888 5886 5885 5883 5877 5874 5867 5864 5861 5857 5853 5850 5847 5843 5839 5835 5830 5824 5817 5809 5801 5792 5782 5772 5761 5751 5741 5733 5725 5716 5708 5701 5695 5689 5683 5677
5893 5893 5891 5890 5889 5889 5886 5886 5884 5882 5881 5879 5875 5870 5864 5861 5857 5853 5849 5845 5841 5837 5833 5828 5822 5816 5808 5800 5791 5783 5774 5762 5752 5742 5732 5723 5714 5706 5698 5692 5685 5679 5673 5666
5890 5889 5888 5886 5886 5886 5884 5882 5880 5877 5877 5875 5873 5866 5863 5857 5852 5847 5844 5840 5835 5831 5826 5821 5814 5808 5801 5792 5784 5775 5764 5753 5743 5733 5723 5713 5705 5696 5689 5683 5677 5670 5662 5655
5886 5886 5883 5883 5883 5881 5879 5878 5876 5875 5873 5869 5868 5867 5859 5853 5848 5843 5838 5833 5829 5824 5820 5814 5807 5800 5793 5785 5776 5765 5754 5744 5735 5724 5714 5705 5696 5689 5682 5675 5669 5662 5653 5644
5881 5880 5880 5878 5877 5876 5875 5873 5872 5869 5867 5865 5862 5860 5855 5849 5844 5838 5834 5829 5824 5819 5814 5808 5801 5794 5785 5777 5768 5757 5745 5736 5727 5717 5707 5697 5689 5682 5675 5668 5660 5652 5643 5634
5875 5875 5874 5873 5872 5871 5869 5868 5867 5865 5863 5861 5858 5855 5847 5844 5839 5834 5829 5824 5819 5814 5808 5802 5795 5787 5779 5770 5760 5749 5738 5730 5721 5712 5701 5691 5683 5675 5667 5660 5652 5643 5635 5626
5869 5869 5869 5869 5868 5865 5863 5862 5861 5859 5857 5856 5852 5850 5846 5840 5834 5829 5824 5820 5814 5808 5803 5796 5789 5781 5773 5763 5753 5742 5732 5724 5715 5705 5695 5685 5677 5669 5661 5652 5643 5635 5627 5619
5863 5863 5862 5862 5861 5860 5857 5856 5854 5853 5851 5849 5848 5844 5840 5836 5830 5825 5820 5815 5809 5803 5797 5790 5783 5775 5767 5757 5746 5735 5726 5717 5708 5699 5690 5680 5671 5661 5653 5644 5635 5626 5619 5612
5856 5855 5855 5855 5854 5853 5852 5851 5849 5846 5844 5843 5840 5837 5835 5830 5826 5821 5816 5810 5804 5798 5792 5785 5778 5770 5761 5751 5740 5730 5719 5711 5702 5694 5685 5675 5664 5654 5644 5634 5625 5616 5610 5604
5850 5848 5848 5848 5847 5846 5847 5846 5843 5841 5839 5837 5835 5832 5829 5825 5821 5817 5811 5805 5799 5793 5787 5781 5774 5766 5756 5747 5736 5725 5715 5706 5697 5688 5679 5669 5658 5647 5636 5625 5615 5607 5601 5595
5843 5841 5840 5840 5841 5841 5838 5838 5837 5835 5832 5830 5829 5826 5823 5821 5816 5812 5806 5800 5794 5788 5782 5776 5770 5762 5753 5743 5733 5721 5710 5701 5692 5683 5674 5663 5651 5640 5628 5616 5607 5599 5592 5585
5836 5835 5833 5834 5833 5833 5833 5832 5829 5828 5828 5823 5822 5819 5817 5815 5811 5806 5801 5796 5790 5783 5777 5771 5766 5758 5749 5740 5729 5717 5706 5696 5688 5679 5669 5658 5645 5634 5620 5609 5600 5591 5583 5575
5828 5828 5828 5825 5825 5823 5825 5824 5822 5820 5820 5817 5814 5812 5810 5808 5805 5800 5796 5791 5785 5779 5773 5767 5761 5754 5746 5736 5725 5714 5702 5692 5683 5675 5664 5652 5640 5627 5615 5605 5596 5587 5579 5571
5817 5818 5818 5817 5815 5816 5819 5815 5814 5814 5814 5809 5806 5805 5803 5801 5799 5795 5790 5786 5780 5774 5768 5763 5757 5750 5742 5733 5722 5710 5698 5688 5680 5671 5660 5648 5636 5624 5612 5603 5594 5585 5578 5572
5809 5808 5809 5809 5807 5807 5809 5808 5807 5805 5803 5801 5799 5796 5795 5793 5791 5788 5784 5780 5774 5769 5764 5759 5753 5746 5738 5730 5719 5708 5695 5685 5677 5668 5657 5645 5634 5622 5613 5602 5593 5585 5579 5575
5800 5801 5801 5799 5800 5798 5797 5798 5797 5796 5795 5792 5790 5788 5787 5787 5784 5781 5778 5774 5769 5763 5759 5754 5749 5742 5735 5726 5717 5706 5693 5683 5675 5666 5656 5645 5633 5623 5613 5603 5594 5586 5579 5575
5790 5791 5790 5789 5794 5790 5788 5788 5788 5786 5786 5784 5782 5780 5779 5779 5778 5775 5772 5768 5763 5759 5755 5750 5745 5739 5732 5724 5715 5704 5692 5681 5673 5665 5655 5645 5634 5625 5615 5605 5596 5589 5584 5579
5782 5779 5781 5781 5783 5780 5779 5777 5777 5776 5776 5774 5772 5772 5771 5771 5771 5769 5766 5762 5758 5754 5750 5746 5741 5736 5729 5722 5713 5702 5690 5680 5672 5665 5656 5646 5636 5628 5619 5609 5600 5593 5588 5582
5769 5770 5769 5770 5767 5768 5767 5765 5765 5766 5765 5763 5762 5764 5763 5763 5763 5762 5760 5757 5753 5749 5746 5742 5738 5733 5727 5720 5712 5702 5690 5680 5673 5666 5657 5648 5640 5632 5624 5615 5605 5598 5593 5586